| time (UTC) | temp F | wind direction | speed MPH | gust MPH | rain 1hr in | rain 24hr in | rain mn in | humidity % | barometer mb |
| 20260503013052 | 53 | 138 | 7.0 | 17.0 | 0.00 | 0.00 | 0.00 | 100 | 1016.1 |
| 20260503011600 | 53 | 72 | 9.0 | 21.0 | 0.00 | 0.00 | 0.00 | 100 | 1016.4 |
| 20260503010055 | 53 | 164 | 8.0 | 21.0 | 0.00 | 0.00 | 0.00 | 100 | 1016.7 |
| 20260503004559 | 53 | 36 | 5.0 | 19.0 | 0.00 | 0.00 | 0.00 | 100 | 1016.9 |
| 20260503003057 | 53 | 160 | 5.0 | 17.0 | 0.00 | 0.00 | 0.00 | 100 | 1017.0 |
| 20260503001606 | 53 | 122 | 7.0 | 16.0 | 0.00 | 0.00 | 0.00 | 100 | 1017.1 |
| 20260503000054 | 52 | 86 | 6.0 | 20.0 | 0.00 | 0.00 | 0.00 | 100 | 1017.5 |
| 20260502234555 | 52 | 61 | 5.0 | 15.0 | 0.00 | 0.00 | 0.00 | 100 | 1017.5 |
| 20260502233054 | 52 | 296 | 6.0 | 15.0 | 0.00 | 0.00 | 0.00 | 100 | 1017.6 |
| 20260502231557 | 53 | 197 | 4.0 | 14.0 | 0.00 | 0.00 | 0.00 | 100 | 1017.9 |
| 20260502230058 | 53 | 99 | 7.0 | 22.0 | 0.00 | 0.00 | 0.00 | 100 | 1018.0 |
| 20260502224553 | 53 | 178 | 5.0 | 20.0 | 0.00 | 0.00 | 0.00 | 100 | 1017.9 |
| 20260502223054 | 53 | 10 | 5.0 | 13.0 | 0.00 | 0.00 | 0.00 | 100 | 1017.9 |
| 20260502221553 | 53 | 65 | 4.0 | 22.0 | 0.00 | 0.00 | 0.00 | 100 | 1018.1 |
| 20260502220057 | 52 | 0 | 5.0 | 20.0 | 0.00 | 0.00 | 0.00 | 100 | 1018.1 |
| 20260502214555 | 52 | 90 | 5.0 | 14.0 | 0.00 | 0.00 | 0.00 | 100 | 1018.1 |
| 20260502213055 | 52 | 0 | 4.0 | 11.0 | 0.00 | 0.00 | 0.00 | 100 | 1018.3 |
| 20260502211556 | 52 | 137 | 4.0 | 12.0 | 0.00 | 0.00 | 0.00 | 100 | 1018.5 |
| 20260502210115 | 52 | 65 | 3.0 | 15.0 | 0.00 | 0.00 | 0.00 | 100 | 1018.6 |
| 20260502204558 | 52 | 134 | 4.0 | 20.0 | 0.00 | 0.00 | 0.00 | 100 | 1018.5 |
| 20260502203057 | 52 | 115 | 7.0 | 18.0 | 0.00 | 0.00 | 0.00 | 100 | 1018.2 |
| 20260502201556 | 52 | 83 | 5.0 | 16.0 | 0.00 | 0.00 | 0.00 | 100 | 1018.7 |
| 20260502200057 | 52 | 0 | 5.0 | 16.0 | 0.00 | 0.00 | 0.00 | 100 | 1018.7 |
| 20260502194555 | 52 | 144 | 6.0 | 20.0 | 0.00 | 0.00 | 0.00 | 100 | 1019.0 |
| 20260502193104 | 52 | 308 | 5.0 | 16.0 | 0.00 | 0.00 | 0.00 | 100 | 1018.3 |
| 20260502191601 | 53 | 186 | 5.0 | 20.0 | 0.00 | 0.00 | 0.00 | 100 | 1018.7 |
| 20260502190110 | 53 | 192 | 7.0 | 17.0 | 0.00 | 0.00 | 0.00 | 100 | 1018.6 |
| 20260502184601 | 53 | 69 | 6.0 | 19.0 | 0.00 | 0.00 | 0.00 | 98 | 1018.6 |
| 20260502183112 | 53 | 101 | 6.0 | 21.0 | 0.00 | 0.00 | 0.00 | 96 | 1018.6 |
| 20260502181555 | 53 | 107 | 3.0 | 15.0 | 0.00 | 0.00 | 0.00 | 99 | 1018.8 |
| 20260502163059 | 55 | 134 | 4.0 | 13.0 | 0.00 | 0.00 | 0.00 | 100 | 1019.0 |
| 20260502161620 | 55 | 191 | 7.0 | 15.0 | 0.00 | 0.00 | 0.00 | 100 | 1019.3 |
| 20260502151609 | 58 | 178 | 7.0 | 20.0 | 0.00 | 0.00 | 0.00 | 100 | 1019.6 |
| 20260502123100 | 59 | 194 | 9.0 | 18.0 | 0.00 | 0.00 | 0.00 | 89 | 1021.6 |
| 20260502121559 | 60 | 161 | 7.0 | 18.0 | 0.00 | 0.00 | 0.00 | 85 | 1021.4 |
| 20260502120114 | 60 | 125 | 5.0 | 19.0 | 0.00 | 0.00 | 0.00 | 78 | 1021.5 |
| 20260502114557 | 61 | 90 | 4.0 | 16.0 | 0.00 | 0.00 | 0.00 | 76 | 1021.6 |
| 20260502113057 | 61 | 96 | 8.0 | 22.0 | 0.00 | 0.00 | 0.00 | 77 | 1021.8 |
| 20260502111606 | 61 | 88 | 6.0 | 22.0 | 0.00 | 0.00 | 0.00 | 76 | 1022.2 |
| 20260502110058 | 61 | 128 | 7.0 | 16.0 | 0.00 | 0.00 | 0.00 | 79 | 1022.1 |
| 20260502104555 | 61 | 355 | 6.0 | 20.0 | 0.00 | 0.00 | 0.00 | 81 | 1022.7 |
| 20260502103057 | 59 | 126 | 5.0 | 25.0 | 0.00 | 0.00 | 0.00 | 85 | 1022.6 |
| 20260502101556 | 59 | 124 | 5.0 | 23.0 | 0.00 | 0.00 | 0.00 | 87 | 1022.6 |
| 20260502090106 | 58 | 203 | 6.0 | 23.0 | 0.00 | 0.00 | 0.00 | 89 | 1022.7 |
| 20260502070107 | 52 | 151 | 7.0 | 17.0 | 0.00 | 0.00 | 0.00 | 100 | 1022.2 |
| 20260502064558 | 53 | 90 | 6.0 | 26.0 | 0.00 | 0.00 | 0.00 | 100 | 1022.4 |
| 20260502063057 | 53 | 29 | 8.0 | 20.0 | 0.00 | 0.00 | 0.00 | 100 | 1022.4 |
| 20260502061555 | 53 | 101 | 7.0 | 15.0 | 0.00 | 0.00 | 0.00 | 100 | 1022.4 |
| 20260502060058 | 53 | 135 | 5.0 | 12.0 | 0.00 | 0.00 | 0.00 | 100 | 1022.2 |
| 20260502054556 | 52 | 82 | 4.0 | 17.0 | 0.00 | 0.00 | 0.00 | 100 | 1021.9 |
| 20260502053119 | 52 | 107 | 4.0 | 13.0 | 0.00 | 0.00 | 0.00 | 100 | 1022.2 |
| 20260502051607 | 51 | 124 | 4.0 | 12.0 | 0.00 | 0.00 | 0.00 | 100 | 1021.9 |
| 20260502050057 | 51 | 75 | 6.0 | 15.0 | 0.00 | 0.00 | 0.00 | 100 | 1022.0 |
| 20260502044557 | 51 | 146 | 5.0 | 20.0 | 0.00 | 0.00 | 0.00 | 100 | 1022.1 |
| 20260502043112 | 51 | 110 | 4.0 | 16.0 | 0.00 | 0.00 | 0.00 | 100 | 1021.9 |
| 20260502041631 | 51 | 137 | 6.0 | 16.0 | 0.00 | 0.00 | 0.00 | 100 | 1022.0 |
| 20260502040059 | 52 | 82 | 2.0 | 11.0 | 0.00 | 0.00 | 0.00 | 100 | 1022.2 |
| 20260502034556 | 52 | 278 | 7.0 | 17.0 | 0.00 | 0.00 | 0.00 | 100 | 1022.2 |
| 20260502033106 | 52 | 101 | 6.0 | 15.0 | 0.00 | 0.00 | 0.00 | 100 | 1022.1 |
| 20260502031554 | 52 | 201 | 3.0 | 18.0 | 0.00 | 0.00 | 0.00 | 100 | 1022.6 |
| 20260502030100 | 52 | 150 | 7.0 | 19.0 | 0.00 | 0.00 | 0.00 | 100 | 1022.4 |
| 20260502024557 | 52 | 141 | 4.0 | 17.0 | 0.00 | 0.00 | 0.00 | 100 | 1022.3 |
| 20260502023059 | 52 | 169 | 5.0 | 20.0 | 0.00 | 0.00 | 0.00 | 100 | 1022.4 |
| 20260502021556 | 51 | 153 | 5.0 | 20.0 | 0.00 | 0.00 | 0.00 | 100 | 1022.5 |
| 20260502020106 | 51 | 158 | 3.0 | 15.0 | 0.00 | 0.00 | 0.00 | 100 | 1022.9 |
| 20260502014557 | 51 | 267 | 4.0 | 16.0 | 0.00 | 0.00 | 0.00 | 100 | 1022.7 |